Location: Bambrugge
(50.9212°N, 3.9299°E)
Time: 03:32:00
(UTC+00:00)

CZ-2D R/B - Pass Details

Date: 23 May 2024
Orbit: 790 x 843 km, 98.8° (Epoch: 21 June)

Event Time Altitude Azimuth Distance (km) Brightness Sun altitude
Rises 01:50:04 0° 16° (NNE) 3,415 7.0 -13.0°
Reaches altitude 10° 01:52:27 10° 17° (NNE) 2,474 6.0 -12.8°
Maximum altitude 01:57:58 78° 105° (ESE) 862 2.3 -12.4°
Enters shadow 02:02:44 14° 191° (S) 2,186 3.8 -11.9°
